TimeCST,TemperatureF,Dew PointF,Humidity,Sea Level PressureIn,VisibilityMPH,Wind Direction,Wind SpeedMPH,Gust SpeedMPH,PrecipitationIn,Events,Conditions,WindDirDegrees,DateUTC
1:52 AM,36.0,28.9,76,30.43,10.0,NNW,3.5,-,N/A,,Overcast,340,2011-12-24 07:52:00
2:52 AM,35.1,28.0,76,30.44,10.0,West,4.6,-,N/A,,Overcast,280,2011-12-24 08:52:00
3:52 AM,35.1,28.9,78,30.44,10.0,WNW,3.5,-,N/A,,Overcast,290,2011-12-24 09:52:00
4:52 AM,35.1,28.0,76,30.46,10.0,WNW,3.5,-,N/A,,Overcast,300,2011-12-24 10:52:00
5:52 AM,35.1,28.9,78,30.48,10.0,North,3.5,-,N/A,,Overcast,360,2011-12-24 11:52:00
6:52 AM,34.0,28.0,79,30.49,10.0,Calm,Calm,-,N/A,,Overcast,0,2011-12-24 12:52:00
7:35 AM,33.8,28.4,81,30.47,10.0,Calm,Calm,-,N/A,,Scattered Clouds,0,2011-12-24 13:35:00
7:52 AM,34.0,28.9,82,30.49,10.0,Calm,Calm,-,N/A,,Clear,0,2011-12-24 13:52:00
8:52 AM,36.0,28.9,76,30.48,10.0,Calm,Calm,-,N/A,,Clear,0,2011-12-24 14:52:00
9:52 AM,37.9,30.9,76,30.49,10.0,South,6.9,-,N/A,,Clear,180,2011-12-24 15:52:00
10:52 AM,39.9,30.9,70,30.47,10.0,SSW,3.5,-,N/A,,Clear,210,2011-12-24 16:52:00
11:52 AM,43.0,30.9,62,30.44,10.0,WSW,5.8,-,N/A,,Clear,250,2011-12-24 17:52:00
12:52 PM,44.1,30.0,58,30.42,10.0,SW,4.6,-,N/A,,Clear,230,2011-12-24 18:52:00
2:52 PM,46.9,30.0,52,30.39,10.0,Calm,Calm,-,N/A,,Clear,0,2011-12-24 20:52:00
3:52 PM,46.9,28.9,50,30.40,10.0,Calm,Calm,-,N/A,,Clear,0,2011-12-24 21:52:00
4:52 PM,45.0,28.9,53,30.40,10.0,South,3.5,-,N/A,,Clear,190,2011-12-24 22:52:00
5:52 PM,42.1,28.9,60,30.40,7.0,Calm,Calm,-,N/A,,Clear,0,2011-12-24 23:52:00
6:52 PM,42.1,30.0,62,30.40,10.0,SSW,3.5,-,N/A,,Clear,210,2011-12-25 00:52:00
7:52 PM,41.0,32.0,70,30.42,10.0,Calm,Calm,-,N/A,,Clear,0,2011-12-25 01:52:00
8:52 PM,41.0,30.9,67,30.42,10.0,Calm,Calm,-,N/A,,Clear,0,2011-12-25 02:52:00
9:52 PM,39.0,33.1,79,30.41,10.0,Calm,Calm,-,N/A,,Clear,0,2011-12-25 03:52:00
10:52 PM,37.9,33.1,83,30.41,8.0,Calm,Calm,-,N/A,,Clear,0,2011-12-25 04:52:00
11:52 PM,35.1,32.0,89,30.40,10.0,Calm,Calm,-,N/A,,Clear,0,2011-12-25 05:52:00